Weather Roundup
Issued by NWS

Home | Current Version | Previous Version | Text Only | Print | Product List | Glossary On
Versions: 1 2 3 4 5 6 7 8 9 10 11 12 13 14 15 16 17 18 19 20 21 22 23 24 25 26 27 28 29 30 31 32 33 34 35 36 37 38 39 40 41 42 43 44 45 46 47 48 49 50
457
NZUS93 KARX 192110
HRRWXR

CURRENT HOURLY OBSERVATIONS ACROSS
MUCH OF THE UPPER MISSISSIPPI VALLEY
NATIONAL WEATHER SERVICE LA CROSSE WI
300 PM CST SUN NOV 19 2017


...SOUTHEAST MINNESOTA...


CITY           SKY/WX    TMP DP  RH WIND       PRES   REMARKS
ROCHESTER      SUNNY     38  25  59 SW14      29.96F WCI  30
ROCHESTER/MAYO FAIR      38  22  52 SW12G17   29.96F WCI  31
WINONA         SUNNY     37  21  52 SW7       29.97F WCI  32
AUSTIN           N/A     39  25  56 SW14      29.96F WCI  31
ALBERT LEA     SUNNY     43  25  49 SW12      29.96F
DODGE CENTER   SUNNY     39  25  56 SW15      29.93F WCI  31
PRESTON        SUNNY     37  22  54 SW15      29.98F WCI  27
OWATONNA       SUNNY     43  27  52 SW12      29.93F
FARIBAULT      SUNNY     43  25  49 S9        29.93F
$$

...ELSEWHERE IN MINNESOTA...


CITY           SKY/WX    TMP DP  RH WIND       PRES   REMARKS
MINNEAPOLIS    MOSUNNY   40  23  50 SW10      29.91F WCI  33
INTNL FALLS    CLOUDY    21  11  65 SW5       29.83S WCI  15
DULUTH         CLOUDY    22  13  68 W8        29.83F WCI  12
RED WING       SUNNY     39  18  41 SW8       29.93F WCI  34
REDWOOD FALLS  SUNNY     51  23  33 SW13      29.88F
MANKATO        SUNNY     47  25  42 W14       29.91F
WORTHINGTON    SUNNY     48  25  40 SW14      29.92F
FAIRMONT       SUNNY     49  25  39 W12       29.94F
$$

...SOUTHWEST WISCONSIN...


CITY           SKY/WX    TMP DP  RH WIND       PRES   REMARKS
LA CROSSE      SUNNY     38  16  40 S7        29.99F WCI  33
PRAIRIE DU CHI SUNNY     36  16  44 SW9       30.05S WCI  29
BOSCOBEL       SUNNY     37  16  42 SW10      30.04F WCI  30
LONE ROCK      SUNNY     36  17  46 W12       30.03S WCI  28
PLATTEVILLE    SUNNY     33  20  58 SW15      30.05S WCI  23
FORT MC COY    PTSUNNY   32  16  51 W6        30.00F WCI  26
CAMP DOUGLAS   MOSUNNY   32  12  43 W8        29.98F WCI  25
MAUSTON-NEW LI PTCLDY    33  16  49 W8        29.98F WCI  26
VIROQUA        FAIR      34  20  56 SW13      29.99S WCI  25
WIS DELLS      SUNNY     33  15  47 W13       29.99R WCI  24
$$

...ELSEWHERE IN WISCONSIN...


CITY           SKY/WX    TMP DP  RH WIND       PRES   REMARKS
MILWAUKEE      PTSUNNY   34  12  40 W9G20     29.99S WCI  27
MADISON        PTSUNNY   34  16  47 W10       30.01S WCI  26
GREEN BAY      PTSUNNY   32  16  51 W14       29.94S WCI  22
EAU CLAIRE     SUNNY     32  14  47 SW12      29.93F WCI  23
BLACK RVR FLS  CLOUDY    33  13  43 SW9       29.98S WCI  25
MEDFORD        CLOUDY    29  14  54 W8        29.89F WCI  21
WAUSAU         CLOUDY    27  11  51 W9        29.90F WCI  18
WIS RAPIDS     SUNNY     30  13  49 W8        29.96F WCI  22
MARSHFIELD     SUNNY     30  13  49 W14       29.91F WCI  19
RICE LAKE      SUNNY     33  17  51 S8        29.91F WCI  26
$$

...NORTHEAST IOWA...


CITY           SKY/WX    TMP DP  RH WIND       PRES   REMARKS
WATERLOO       SUNNY     41  21  44 SW13      30.04F
DUBUQUE        SUNNY     33  19  56 W14       30.06F WCI  23
DECORAH        SUNNY     36  19  51 VRB6G13   30.00F WCI  31
MASON CITY     SUNNY     43  25  49 SW10      30.00F
CHARLES CITY   SUNNY     41  23  48 SW14G20   30.01F
OELWEIN        SUNNY     37  23  56 SW13      30.04F WCI  29
$$

...ELSEWHERE IN IOWA...


CITY           SKY/WX    TMP DP  RH WIND       PRES   REMARKS
DES MOINES     MOSUNNY   48  24  39 SW15      30.04F
IOWA CITY      SUNNY     40  21  46 SW8       30.12F WCI  34
FORT DODGE     SUNNY     48  27  44 SW13      30.00F
MARSHALLTOWN   SUNNY     43  26  51 SW14      30.04F
CEDAR RAPIDS   SUNNY     39  21  48 SW8       30.08F WCI  33
$$

...NORTHERN ILLINOIS...


CITY           SKY/WX    TMP DP  RH WIND       PRES   REMARKS
CHICAGO-OHARE  PTSUNNY   34  17  50 W14       30.04R WCI  25
CHICAGO-MIDWAY PTSUNNY   35  17  47 W13G18    30.05R WCI  26
MOLINE         SUNNY     37  17  44 W13       30.11F WCI  29
ROCKFORD       CLOUDY    35  17  47 NW16G22   30.07S WCI  25
PEORIA         SUNNY     36  17  46 NW7       30.15R WCI  30
$$

NOTE: "FAIR" INDICATES FEW OR NO CLOUDS BELOW 12,000 FEET WITH NO
SIGNIFICANT WEATHER AND/OR OBSTRUCTIONS TO VISIBILITY. WIND
SPEEDS ARE IN MILES-PER-HOUR.




USA.gov is the U.S. government's official web portal to all federal, state and local government web resources and services.